View from above orbital plane
|
View from above satellite
|
Ground track
|
The orbit data is extracted from the following two-line orbital elements,
1 31863U 07032B 13168.11123481 .00000330 00000-0 15598-3 0 968
2 31863 045.9434 183.2789 5010267 138.1923 273.5859 05.49639772118953
| Epoch (UTC): | 17 June 2013 02:40:10 |
| Eccentricity: | 0.5010267 |
| inclination: | 45.9434° |
| perigee height: | 389 km |
| apogee height: | 13980 km |
| right ascension of ascending node: | 183.2789° |
| argument of perigee: | 138.1923° |
| revolutions per day: | 5.49639772 |
| mean anomaly at epoch: | 273.5859° |
| orbit number at epoch: | 11895 |
The dashed part of the orbit path shows where the satellite is in the earth's shadow,
|
|